Weather History for LIRQ - March, 2014

Change the Weather History Date:

Tuesday, March 4, 2014

  Actual Average Record
Temperature  
Mean Temperature 50 °F -  
Max Temperature 55 °F 60 °F 71 °F (2007)
Min Temperature 46 °F 42 °F 30 °F (2004)
Degree Days  
Heating Degree Days 14    
Moisture  
Dew Point 42 °F    
Average Humidity 75    
Maximum Humidity 96    
Minimum Humidity 53    
Precipitation  
Precipitation 0.01 in 0.10 in - ()
Sea Level Pressure  
Sea Level Pressure 29.31 in    
Wind  
Wind Speed 7 mph ()    
Max Wind Speed 21 mph    
Max Gust Speed 33 mph    
Visibility 6.6 miles    
Events Rain    
Averages and records for this station are not official NWS values.
T = Trace of Precipitation, MM = Missing Value Source: Averaged Metar Reports

Daily Weather History Graph

Daily Weather History Graph

Search for Another Location

Airport or City:

Trip Planner

Search our weather history database for the weather conditions in past years. The results will help you decide how hot, cold, wet, or windy it might be!

Date:

Astronomy

Mar. 04, 2014 Rise Set
Actual Time 6:47 AM CET 6:07 PM CET
Civil Twilight 6:18 AM CET 6:36 PM CET
Nautical Twilight 5:45 AM CET 7:09 PM CET
Astronomical Twilight 5:11 AM CET 7:42 PM CET
Moon 8:15 AM CET 10:05 PM CET
Length of Visible Light 12h 17m
Length of Day
11h 20m
Waxing Crescent, 13% of the Moon is Illuminated
Mar 4
Waxing Crescent
Mar 8
First Quarter
Mar 16
Full
Mar 24
Last Quarter
Mar 30
New

Hourly Weather History & Observations

Time (CET) Temp. Windchill Dew Point Humidity Pressure Visibility Wind Dir Wind Speed Gust Speed Precip Events Conditions
12:20 AM 48.2 °F - 46.4 °F 93% 29.30 in 6.2 mi South 3.5 mph - N/A   Overcast
12:50 AM 48.2 °F - 42.8 °F 82% 29.27 in 6.2 mi ESE 9.2 mph - N/A Rain Light Rain
1:00 AM 48 °F - 44 °F 79% 29.29 in 12 mi East 6.9 mph - - Rain Light Rain
1:20 AM 48.2 °F - 42.8 °F 82% 29.27 in 6.2 mi East 5.8 mph - N/A Rain Light Rain
1:50 AM 48.2 °F - 42.8 °F 82% 29.27 in 6.2 mi East 5.8 mph - N/A Rain Light Rain
2:20 AM 46.4 °F 45.2 °F 44.6 °F 93% 29.27 in 6.2 mi ENE 3.5 mph - N/A Rain Light Rain
2:50 AM 46.4 °F 45.2 °F 44.6 °F 93% 29.24 in 6.2 mi SSW 3.5 mph - N/A Rain Light Rain
3:20 AM 46.4 °F - 44.6 °F 93% 29.24 in 6.2 mi Variable 1.2 mph - N/A Rain Light Rain
3:50 AM 46.4 °F 45.2 °F 44.6 °F 93% 29.21 in 6.2 mi West 3.5 mph - N/A   Light Drizzle
4:00 AM 46 °F - 45 °F 96% 29.23 in 6 mi West 3.5 mph - - Rain Light Drizzle
4:20 AM 46.4 °F 45.2 °F 44.6 °F 93% 29.21 in 6.2 mi SW 3.5 mph - N/A Rain Light Rain
4:50 AM 46.4 °F 45.2 °F 44.6 °F 93% 29.21 in 6.2 mi SSW 3.5 mph - N/A Rain Light Rain
5:20 AM 46.4 °F - 44.6 °F 93% 29.21 in 6.2 mi Variable 2.3 mph - N/A Rain Light Rain
5:50 AM 46.4 °F 45.2 °F 44.6 °F 93% 29.21 in 6.2 mi WNW 3.5 mph - N/A Rain Light Rain
6:20 AM 46.4 °F - 44.6 °F 93% 29.21 in 6.2 mi Variable 2.3 mph - N/A Rain Light Rain
6:50 AM 48.2 °F - 42.8 °F 82% 29.18 in 6.2 mi South 4.6 mph - N/A Rain Light Rain
7:00 AM 48 °F - 42 °F 72% 29.21 in 9 mi ENE 4.6 mph - - Rain Light Rain
7:20 AM 48.2 °F - 41.0 °F 76% 29.18 in 6.2 mi North 13.8 mph - N/A Rain Light Rain
7:50 AM 48.2 °F - 39.2 °F 71% 29.18 in 6.2 mi North 11.5 mph - N/A   Light Drizzle
8:20 AM 48.2 °F - 39.2 °F 71% 29.18 in 6.2 mi North 10.4 mph - N/A   Light Drizzle
8:50 AM 50.0 °F - 41.0 °F 71% 29.21 in 6.2 mi Variable 10.4 mph - N/A   Mostly Cloudy
9:20 AM 50.0 °F - 39.2 °F 66% 29.21 in 6.2 mi NNE 11.5 mph 26.5 mph N/A   Mostly Cloudy
9:50 AM 50.0 °F - 39.2 °F 66% 29.21 in 6.2 mi NNE 18.4 mph - N/A   Mostly Cloudy
10:00 AM 50 °F - 40 °F 58% 29.22 in 6 mi NNE 15.0 mph - -   Partly Cloudy
10:20 AM 51.8 °F - 39.2 °F 62% 29.21 in 6.2 mi NNE 15.0 mph 27.6 mph N/A   Mostly Cloudy
10:50 AM 51.8 °F - 41.0 °F 67% 29.24 in 6.2 mi NNE 16.1 mph - N/A   Mostly Cloudy
11:20 AM 53.6 °F - 41.0 °F 62% 29.24 in 6.2 mi NNE 17.3 mph 28.8 mph N/A   Partly Cloudy
11:50 AM 53.6 °F - 41.0 °F 62% 29.24 in 6.2 mi NNE 19.6 mph - N/A   Partly Cloudy
12:20 PM 53.6 °F - 41.0 °F 62% 29.27 in 6.2 mi North 20.7 mph - N/A   Scattered Clouds
12:50 PM 53.6 °F - 42.8 °F 67% 29.24 in 6.2 mi North 18.4 mph 32.2 mph N/A   Scattered Clouds
1:00 PM 54 °F - 42 °F 53% 29.26 in 6 mi North 18.4 mph - -   Partly Cloudy
1:20 PM 55.4 °F - 42.8 °F 63% 29.27 in 6.2 mi NNE 17.3 mph 33.4 mph N/A   Partly Cloudy
1:50 PM 51.8 °F - 41.0 °F 67% 29.27 in 6.2 mi NNE 17.3 mph 29.9 mph N/A   Scattered Clouds
2:20 PM 51.8 °F - 39.2 °F 62% 29.30 in 6.2 mi NE 10.4 mph 24.2 mph N/A   Scattered Clouds
2:50 PM 53.6 °F - 41.0 °F 62% 29.30 in 6.2 mi Variable 5.8 mph - N/A   Scattered Clouds
3:20 PM 51.8 °F - 41.0 °F 67% 29.33 in 6.2 mi ENE 9.2 mph - N/A   Scattered Clouds
3:50 PM 53.6 °F - 41.0 °F 62% 29.33 in 6.2 mi WNW 4.6 mph - N/A   Scattered Clouds
4:00 PM 53 °F - 41 °F 54% 29.35 in 16 mi WNW 4.6 mph - -   Partly Cloudy
4:20 PM 53.6 °F - 41.0 °F 62% 29.33 in 6.2 mi Variable 4.6 mph - N/A   Partly Cloudy
4:50 PM 53.6 °F - 41.0 °F 62% 29.36 in 6.2 mi Variable 8.1 mph - N/A   Partly Cloudy
5:20 PM 53.6 °F - 41.0 °F 62% 29.36 in 6.2 mi Variable 3.5 mph - N/A   Partly Cloudy
5:50 PM 53.6 °F - 41.0 °F 62% 29.39 in 6.2 mi Variable 4.6 mph - N/A   Partly Cloudy
6:20 PM 51.8 °F - 41.0 °F 67% 29.39 in 6.2 mi NE 5.8 mph - N/A   Scattered Clouds
6:50 PM 51.8 °F - 41.0 °F 67% 29.44 in 6.2 mi North 11.5 mph 23.0 mph N/A   Scattered Clouds
7:00 PM 51 °F - 42 °F 62% 29.45 in 9 mi North 11.5 mph - -   Partly Cloudy
7:20 PM 50.0 °F - 44.6 °F 82% 29.44 in 5.0 mi NNE 17.3 mph - N/A Rain Rain
7:50 PM 50.0 °F - 44.6 °F 82% 29.47 in 6.2 mi North 5.8 mph - N/A Rain Light Rain
8:20 PM 48.2 °F - 44.6 °F 87% 29.47 in 6.2 mi East 5.8 mph - N/A Rain Light Rain
8:50 PM 48.2 °F - 44.6 °F 87% 29.50 in 6.2 mi South 4.6 mph - N/A   Scattered Clouds
9:20 PM 48.2 °F - 44.6 °F 87% 29.50 in 6.2 mi Variable 2.3 mph - N/A   Scattered Clouds
9:50 PM 50.0 °F - 42.8 °F 76% 29.50 in 6.2 mi NNE 8.1 mph 19.6 mph N/A   Scattered Clouds
10:00 PM 49 °F - 42 °F 69% 29.54 in 9 mi NNE 9.2 mph - -   Partly Cloudy
10:20 PM 48.2 °F - 42.8 °F 82% 29.53 in 6.2 mi NNE 4.6 mph - N/A Rain Light Rain
10:50 PM 48.2 °F - 42.8 °F 82% 29.53 in 6.2 mi South 4.6 mph - N/A   Light Drizzle
11:20 PM 48.2 °F - 42.8 °F 82% 29.53 in 6.2 mi Variable 3.5 mph - N/A   Light Drizzle
11:50 PM 48.2 °F - 42.8 °F 82% 29.56 in 6.2 mi Variable 3.5 mph - N/A   Scattered Clouds